Location: Castro Valley
(37.6941°N, 122.0863°W)
Time: 05:43:21
(UTC+00:00)

ARGOS - Pass Details

Date: 03 August 2024
Orbit: 818 x 834 km, 98.4° (Epoch: 14 September)

Event Time Altitude Azimuth Distance (km) Brightness Sun altitude
Rises 12:31:21 0° 19° (NNE) 3,376 7.2 -8.5°
Reaches altitude 10° 12:33:49 10° 25° (NNE) 2,436 6.5 -8.0°
Maximum altitude 12:39:00 48° 99° (E) 1,073 4.2 -7.1°
Drops below altitude 10° 12:44:09 10° 173° (S) 2,410 5.4 -6.2°
Sets 12:46:34 0° 179° (S) 3,336 6.0 -5.8°
